Theta_e
352 351 351 350 349 350 350 350 350 349 349 350 351 351 350 350 348 348 344 343 348 351 349 345 342 342 345 347 346 348 349 348 347 346 346 345 343 342 341 340 338 338 338 337 338 340 344 346 345 346 347 347 347 347 346 346 346 345 346 348 348 344 345 347 346 346 346 346 346 343 343 344 345 345 346 346 346 345 346 347 346 345 346 346 343
352 351 350 350 349 349 349 349 349 348 347 349 351 350 349 349 349 348 346 343 348 351 350 345 342 342 343 345 346 347 348 346 345 345 346 346 345 344 343 342 340 339 338 335 334 337 342 344 344 345 345 346 346 346 347 346 342 342 343 344 344 343 345 346 346 346 346 346 347 345 342 343 344 345 346 347 345 345 346 346 345 345 345 345 342
351 351 351 351 349 350 349 348 348 347 347 349 350 350 350 349 349 349 347 346 348 350 351 347 345 344 343 345 347 347 346 347 346 345 346 346 345 344 343 343 342 341 340 337 335 336 337 340 340 341 343 343 343 344 345 344 341 341 340 340 342 344 344 345 345 346 346 347 347 347 345 343 343 345 346 346 346 346 346 347 346 345 345 345 344
350 350 351 351 349 349 349 348 349 347 348 349 349 349 349 349 349 350 349 347 347 348 349 348 346 346 347 348 350 348 347 348 348 346 346 346 345 344 343 343 343 342 342 340 337 337 336 336 336 336 338 340 340 342 342 341 340 339 338 340 344 344 344 345 346 346 346 348 348 348 348 346 345 345 344 344 346 346 348 348 347 346 345 345 345
350 350 350 350 349 349 349 349 349 348 349 349 348 348 349 350 349 350 349 348 347 346 346 347 346 346 347 348 350 349 348 348 348 345 345 345 344 343 343 343 343 342 342 341 339 339 337 336 335 336 337 338 339 340 340 340 340 339 339 342 345 346 346 346 346 346 347 347 348 349 349 348 348 347 346 344 345 347 349 350 349 347 346 345 345
351 350 349 349 349 349 350 349 349 349 350 350 348 348 349 349 349 350 349 349 349 347 345 345 345 345 345 346 347 348 348 346 345 344 343 344 343 343 343 343 342 342 342 342 341 339 338 337 337 338 338 338 338 338 339 342 343 342 344 345 346 347 347 346 346 347 348 348 348 349 349 350 350 350 350 348 346 346 348 349 349 348 347 346 346
352 350 349 349 349 350 350 350 349 349 349 349 348 349 349 349 350 350 349 349 349 348 346 344 343 344 343 344 345 346 347 345 343 342 341 342 343 343 343 343 342 342 343 344 341 339 339 338 339 339 339 339 339 338 340 343 345 345 347 348 348 348 347 347 346 347 348 348 348 349 349 351 351 351 351 351 350 348 348 348 347 347 346 346 346
352 350 349 349 349 350 351 350 350 350 350 349 348 348 349 350 349 348 348 348 348 347 346 345 343 343 342 343 346 347 347 346 343 344 342 342 344 343 342 343 343 343 344 345 342 339 339 339 339 339 341 343 342 341 341 342 345 348 350 349 350 349 349 349 348 348 349 348 348 348 349 350 350 351 351 350 350 350 348 347 346 348 348 347 347
352 351 349 350 351 352 351 351 351 350 350 349 348 348 348 349 349 348 348 348 348 347 347 346 343 341 341 344 347 348 348 346 345 345 344 342 344 343 342 344 344 345 345 346 345 343 341 339 338 339 343 346 346 345 344 343 344 346 349 350 351 351 350 350 349 349 348 348 348 346 347 349 350 351 351 350 350 349 349 347 346 347 348 348 347
351 351 350 350 351 352 352 351 351 351 351 350 350 350 349 349 348 348 348 347 348 347 348 346 342 340 343 344 347 348 347 346 346 346 345 343 343 343 344 344 344 346 346 346 347 347 346 344 342 341 344 346 347 346 345 344 344 346 349 351 351 351 350 350 349 349 349 349 348 347 348 349 350 350 350 349 349 348 348 347 346 346 347 348 347
350 350 350 351 351 351 352 352 352 352 352 351 350 350 350 350 349 348 348 348 348 348 348 347 343 342 345 345 346 346 346 346 346 347 346 344 343 345 345 344 344 346 347 346 346 348 349 348 347 347 347 347 348 347 345 344 346 348 350 350 350 350 350 349 349 349 349 349 349 349 350 351 350 350 350 349 349 348 348 347 346 346 347 348 348
350 350 351 352 351 351 351 352 353 352 352 352 351 351 351 350 350 349 349 348 349 348 348 349 346 344 345 346 345 346 345 346 347 347 346 344 345 347 346 345 345 346 347 347 347 348 348 349 349 349 349 348 348 348 346 345 346 348 348 348 349 349 349 350 349 349 349 348 348 348 349 350 350 350 350 349 348 349 348 347 347 347 347 348 348
350 350 351 352 351 350 351 352 353 352 352 352 351 352 351 351 352 351 350 349 349 350 349 350 349 345 345 346 345 345 345 346 347 347 347 345 346 347 347 346 346 346 346 346 347 347 348 349 349 349 349 349 349 349 348 348 348 348 347 348 348 348 349 349 349 349 348 349 349 348 348 349 350 350 350 349 348 348 347 347 347 347 346 347 347
348 349 350 352 352 350 351 351 352 352 352 352 352 353 352 352 352 352 352 351 351 351 350 350 350 347 346 345 344 344 345 345 345 346 346 346 346 347 347 347 346 346 346 346 347 347 347 348 349 350 350 350 350 350 350 350 350 350 349 348 348 347 348 348 348 348 348 349 349 349 348 349 349 350 350 349 348 347 347 347 347 347 346 346 346
348 349 349 350 350 350 351 351 351 352 353 353 353 353 353 352 352 353 352 352 352 352 352 351 350 348 347 346 344 343 343 343 343 342 343 344 344 345 346 346 345 345 346 346 347 347 347 348 349 349 350 350 350 350 350 350 350 350 350 349 348 348 348 348 347 347 347 347 348 349 350 349 349 350 350 349 348 348 348 347 347 348 347 346 345
349 349 350 350 350 350 351 350 351 352 353 353 353 353 353 353 353 352 352 353 352 352 351 350 348 348 347 346 345 343 342 341 341 341 342 343 343 344 344 345 346 345 345 345 345 345 345 346 347 348 348 348 350 350 350 350 350 350 350 350 349 348 348 348 348 347 346 345 345 346 348 349 350 351 350 350 350 349 349 347 347 347 347 346 345
349 350 350 349 350 350 351 350 351 352 353 353 353 353 354 354 353 353 352 352 352 352 351 348 346 346 345 346 345 342 341 340 339 339 340 343 343 344 345 346 346 345 345 344 342 342 343 344 346 346 346 347 349 349 349 350 350 350 351 350 349 348 348 347 348 347 346 344 344 344 345 347 350 351 351 351 351 350 350 348 347 347 347 346 346
349 349 348 348 350 350 351 351 350 351 352 352 353 353 354 354 354 353 352 352 351 351 350 346 345 345 345 345 345 343 342 342 341 340 340 341 342 343 344 344 344 344 344 343 342 342 343 345 346 346 346 347 347 348 348 349 350 349 350 350 349 348 349 349 348 348 347 345 345 345 345 346 349 351 351 351 351 351 350 349 347 347 348 347 346
349 349 348 349 349 349 351 351 351 351 350 351 353 353 354 354 354 354 353 352 352 351 350 346 346 346 346 347 346 345 345 345 345 345 344 343 342 342 342 343 344 344 343 343 342 342 343 345 347 347 346 347 347 348 348 349 349 349 349 349 349 349 349 349 348 348 348 348 347 347 347 346 348 350 352 352 352 351 350 349 348 347 348 347 347
348 347 348 348 348 349 351 351 351 350 350 350 352 353 354 354 355 355 355 354 353 352 350 348 348 347 347 348 348 347 348 347 348 348 347 346 346 345 345 345 346 345 345 344 344 342 343 344 345 346 346 346 347 348 348 349 350 350 349 349 349 349 349 348 348 348 348 348 348 348 347 346 347 348 350 351 351 350 349 348 348 347 347 347 347
347 347 347 347 348 350 350 350 351 350 351 352 353 354 354 355 355 355 355 355 353 351 351 349 348 348 348 348 348 348 348 349 349 349 349 348 347 347 347 347 347 346 346 346 345 344 344 344 344 345 345 345 346 348 348 349 350 350 350 349 348 349 349 349 348 349 348 348 348 348 348 347 347 347 348 348 350 350 350 349 348 348 348 347 347
346 346 346 347 348 349 349 350 351 352 353 353 354 355 354 355 356 355 355 354 352 351 351 350 350 349 348 348 349 349 349 349 349 349 349 348 349 348 348 348 348 348 348 347 347 346 346 345 345 346 346 346 346 348 349 349 350 351 349 348 348 349 349 349 349 349 348 348 348 348 347 348 348 347 347 348 348 349 350 349 349 348 348 348 347
345 345 346 347 348 348 348 349 350 351 352 352 355 356 355 355 355 355 355 353 352 352 351 351 351 350 349 349 350 351 350 350 349 348 348 348 349 348 348 348 348 348 348 347 347 347 347 346 346 346 346 346 348 349 350 350 351 350 348 347 348 348 349 349 349 349 348 348 349 348 348 348 348 348 348 349 349 349 350 350 348 348 348 348 347
346 346 347 347 347 348 348 349 349 351 352 351 354 356 356 356 355 354 353 353 352 351 350 352 353 352 351 351 352 352 351 350 349 347 348 348 348 348 348 348 347 347 347 347 347 347 346 346 346 347 347 347 347 349 349 350 350 349 348 348 348 348 348 348 348 349 349 349 349 348 348 349 349 348 348 348 349 348 349 349 349 349 348 348 347
348 347 348 348 348 348 348 349 350 351 352 352 353 354 354 355 354 354 353 353 353 352 351 353 354 354 353 352 353 353 352 351 349 347 347 348 348 349 348 349 347 347 347 347 346 346 346 345 346 347 348 347 347 347 348 348 349 349 349 348 348 348 349 348 349 350 349 349 348 347 347 349 349 349 349 348 348 348 348 349 350 349 350 349 348
349 349 349 347 348 349 349 351 352 353 352 351 351 352 352 354 354 355 354 354 354 353 354 355 355 355 353 351 352 352 352 352 349 347 347 348 349 349 348 349 348 348 347 347 346 346 347 347 347 347 348 348 348 347 347 348 349 350 350 348 348 348 348 349 349 350 349 348 348 348 348 349 349 350 350 349 349 348 349 349 349 350 350 350 349
351 354 353 351 351 351 351 351 353 354 353 351 351 350 351 353 353 354 355 355 355 356 356 355 355 355 354 353 352 351 351 350 347 347 348 348 349 348 348 349 349 348 348 347 347 347 347 348 348 348 349 348 348 348 348 348 350 351 350 348 348 349 349 350 350 349 348 347 347 348 349 349 349 349 349 349 350 349 349 349 349 350 350 350 350
352 354 354 354 354 353 353 354 354 354 353 353 352 351 351 351 352 354 355 355 357 357 353 351 351 353 353 353 350 348 348 349 348 349 349 348 347 347 348 349 350 349 348 347 347 347 348 349 349 349 348 348 348 348 348 349 350 351 350 349 349 350 350 351 351 349 348 348 348 349 349 350 349 350 349 350 350 350 350 350 350 350 350 350 350
349 349 352 354 354 355 355 355 355 354 354 353 353 352 351 351 352 354 355 356 356 353 348 347 348 351 351 349 347 346 347 348 348 349 348 348 347 345 346 348 350 350 348 348 348 348 350 350 349 349 348 348 348 347 348 350 351 351 350 350 351 351 351 351 349 348 348 349 350 349 350 350 350 350 350 350 349 349 349 350 350 349 350 350 350
348 347 349 350 352 353 352 352 354 353 353 354 353 352 351 351 352 353 355 355 352 347 345 345 347 349 349 348 348 348 348 348 348 348 348 347 346 345 347 349 350 350 349 349 349 349 349 350 349 349 349 349 349 349 349 350 350 350 351 352 352 351 351 350 349 349 350 350 350 349 349 349 349 349 350 350 350 350 349 350 350 350 350 350 350
346 347 349 350 351 350 349 350 352 352 352 352 351 351 351 351 351 353 354 353 349 345 344 345 347 348 348 349 349 350 350 349 348 347 346 346 346 348 350 350 350 350 350 350 350 350 350 350 349 350 350 350 350 350 350 349 350 351 352 352 352 351 350 350 350 350 351 350 349 348 348 349 349 350 350 349 350 349 349 349 349 349 350 350 350
345 347 349 350 350 350 350 351 351 351 351 350 350 350 350 350 351 352 353 351 347 345 345 345 348 348 349 349 350 350 349 348 347 348 348 349 350 351 351 350 350 350 350 350 350 350 350 350 350 350 350 351 350 350 350 350 351 352 352 352 352 351 351 351 351 351 351 350 350 349 349 349 349 350 349 350 350 350 349 349 349 349 350 349 349
346 346 347 348 348 348 349 350 351 352 351 350 351 351 350 349 349 350 351 349 347 347 346 345 346 348 349 349 350 350 349 349 349 350 350 351 350 350 350 350 350 350 350 350 351 350 350 350 351 351 351 351 351 351 351 351 352 352 351 352 352 351 351 351 351 350 350 350 350 350 349 349 348 348 349 349 349 350 350 350 350 350 350 349 349
346 347 346 346 347 346 348 347 348 352 351 351 351 351 350 350 348 348 348 347 348 349 348 346 346 347 348 349 350 351 350 350 351 350 350 349 349 350 351 351 351 350 350 350 350 350 350 351 351 351 351 352 352 352 352 352 352 352 352 352 351 351 351 351 350 350 350 350 350 349 349 349 348 347 347 347 348 349 350 350 350 350 350 349 349
346 347 346 346 346 346 347 345 347 351 351 351 351 352 352 350 349 348 347 347 349 350 349 347 347 347 349 350 351 351 351 350 351 350 349 348 349 350 350 350 350 350 350 350 350 350 350 350 350 351 351 352 352 352 352 352 352 351 350 350 350 350 350 350 350 350 350 350 349 349 349 348 347 347 346 346 347 348 349 350 350 350 350 350 349
345 345 346 346 346 346 347 346 346 350 351 350 350 352 353 353 351 349 348 348 350 350 350 348 347 348 349 350 350 350 350 351 351 350 348 348 349 349 348 349 350 350 350 350 350 350 349 349 349 349 349 351 351 350 350 349 349 348 347 347 348 348 348 348 348 348 348 348 348 348 348 349 348 347 345 345 345 347 349 350 350 350 349 349 348
343 343 346 347 346 347 348 347 346 347 348 347 346 348 352 354 353 350 349 348 349 349 349 349 348 350 351 350 349 347 349 351 350 349 349 348 349 348 348 349 350 350 349 349 349 349 348 347 346 345 346 348 348 347 346 346 345 344 344 343 342 342 343 343 343 344 344 345 347 348 348 348 348 346 346 345 344 345 347 348 349 349 348 347 346
340 341 344 347 348 347 347 348 345 340 341 344 345 345 347 352 354 352 349 349 348 349 349 349 350 352 351 350 349 347 347 348 348 349 350 350 349 349 349 350 350 350 349 349 349 349 347 346 346 344 345 345 345 344 343 343 343 342 342 341 339 338 338 337 336 338 340 343 345 346 347 347 347 346 346 345 345 344 344 345 345 346 346 345 344
339 339 340 344 347 347 347 348 345 337 336 340 343 344 346 351 355 353 350 349 349 349 350 350 351 352 350 348 348 346 345 346 347 347 348 348 348 349 349 348 348 347 347 347 347 347 347 346 345 344 344 344 343 343 343 343 342 342 340 338 336 335 334 332 330 331 336 341 343 344 346 347 346 346 345 345 345 345 344 342 342 341 341 340 339
338 340 341 342 345 346 346 346 344 340 338 338 340 344 346 350 354 354 350 348 349 350 351 352 352 352 350 348 347 346 345 346 346 346 346 346 347 346 346 346 345 344 343 342 342 341 342 341 341 340 340 340 340 340 340 340 339 338 336 334 332 330 328 327 327 328 332 338 341 342 343 345 345 345 344 344 342 340 338 338 337 337 336 336 335
338 339 341 343 345 346 344 343 344 344 340 337 339 342 345 349 353 354 350 348 350 351 351 352 353 352 350 348 347 346 346 347 346 345 347 347 346 346 346 345 345 344 342 341 338 336 335 335 335 335 335 335 336 336 336 337 336 334 332 329 328 327 325 326 329 330 332 335 338 339 340 340 341 341 340 338 337 335 335 335 335 336 336 336 336
339 338 339 342 345 347 346 347 348 345 341 339 339 342 346 348 351 353 352 350 351 353 352 353 353 350 348 348 348 349 349 348 347 347 348 347 347 347 346 345 344 344 342 340 338 337 337 337 337 337 336 336 336 335 334 334 333 333 331 329 328 327 326 327 330 331 332 334 335 337 337 337 337 336 335 334 334 334 335 335 335 335 335 335 336
341 339 339 342 345 346 347 349 348 345 342 340 338 341 346 348 350 352 353 352 353 353 353 353 351 348 347 348 349 350 350 349 349 348 347 347 347 346 345 344 344 344 342 339 337 338 339 339 339 339 338 336 335 334 332 332 332 331 331 330 330 329 328 328 329 330 332 333 334 335 335 335 334 333 333 333 333 334 334 334 334 334 335 335 336
341 340 339 341 344 344 346 349 348 343 340 339 337 338 342 344 344 348 352 353 353 352 352 352 350 347 347 348 349 349 348 348 348 347 346 346 345 345 344 344 344 342 340 338 336 336 338 340 339 337 336 334 334 334 334 334 333 333 332 331 330 331 332 331 331 331 332 332 333 333 333 333 333 333 334 334 334 334 334 333 334 334 335 335 336
340 340 340 340 340 340 342 347 348 343 343 345 342 339 339 337 338 344 350 352 352 352 351 351 349 348 347 346 346 347 347 347 348 347 346 346 346 345 346 344 341 337 334 334 334 334 335 336 335 335 335 335 335 335 335 335 334 333 332 332 332 332 333 333 333 333 333 333 333 333 334 334 334 335 335 335 334 334 334 333 333 334 335 335 336
336 339 340 338 338 338 339 344 347 346 346 348 347 345 342 339 340 347 351 351 351 352 351 350 349 348 347 347 346 346 346 345 345 345 344 343 343 342 340 338 335 331 329 330 330 330 332 333 333 334 334 334 334 335 335 335 334 333 331 332 333 333 333 333 333 333 333 333 334 335 335 335 334 335 335 334 333 333 334 333 333 333 333 333 334
333 337 339 337 336 337 338 339 343 346 347 347 348 348 347 344 344 348 350 351 351 351 350 349 349 348 347 347 347 347 347 345 343 341 340 338 336 333 331 330 329 327 327 327 327 329 331 332 332 333 333 333 333 332 331 331 332 331 330 331 332 332 332 332 332 332 332 333 334 335 335 334 334 334 334 334 333 333 333 332 331 330 331 332 332
332 334 337 336 333 335 335 334 335 339 343 346 347 346 345 344 344 346 349 350 351 349 346 346 346 345 346 347 346 346 347 346 344 341 338 334 329 326 326 325 324 323 324 324 326 328 330 330 331 331 332 332 332 332 330 328 328 329 330 330 330 329 329 329 329 331 332 332 333 334 334 333 333 333 334 333 333 332 332 331 330 329 329 330 332
333 332 334 334 332 334 335 333 331 333 337 341 345 345 344 345 344 345 348 350 351 350 347 344 342 342 343 345 346 346 345 345 343 341 338 334 330 328 327 325 322 320 321 321 323 326 327 328 330 330 331 331 332 333 330 327 327 328 329 329 329 328 328 328 329 330 330 330 331 332 332 332 333 333 332 331 330 330 330 330 330 329 328 328 330
333 331 331 332 332 333 334 334 334 335 335 337 340 342 343 343 343 344 347 350 352 352 349 346 344 341 340 341 343 345 345 344 343 341 340 337 335 333 332 330 326 323 320 319 320 321 323 324 325 326 328 329 330 331 329 327 326 327 328 328 328 328 328 329 329 329 330 331 331 331 330 330 331 331 330 330 330 330 330 329 330 329 328 328 328
333 332 331 331 331 332 334 334 334 335 335 335 335 336 338 341 342 343 346 350 352 352 351 349 346 344 340 338 338 340 343 344 344 342 341 339 337 336 335 334 332 329 325 322 320 319 320 321 322 322 324 325 326 328 329 328 326 325 326 327 328 327 328 328 329 330 331 331 330 330 329 330 330 330 330 330 330 330 330 330 330 330 329 329 329
Wind_Speed
27 27 27 27 28 30 30 29 28 27 27 28 29 29 27 25 24 23 25 26 25 24 22 23 23 21 22 22 22 21 20 19 17 17 15 12 11 10 9 11 14 15 13 13 16 18 19 17 16 14 13 13 13 13 12 12 12 11 9 10 10 9 7 8 10 11 11 11 10 11 9 7 6 6 6 5 6 7 8 8 8 8 6 4 2
25 26 27 26 27 29 29 28 29 28 26 28 31 31 28 26 25 23 24 26 26 25 23 24 23 21 22 21 20 20 20 19 18 17 16 13 12 12 11 10 11 12 12 14 16 18 20 20 19 18 16 15 15 15 14 13 12 11 9 8 8 7 7 7 8 10 10 10 11 13 13 10 7 7 7 7 7 7 8 8 9 8 6 2 1
24 24 25 25 26 28 28 29 30 26 26 30 32 31 29 28 26 23 23 25 26 25 24 24 23 21 21 19 18 19 19 18 17 16 16 15 14 14 14 12 10 9 10 12 15 17 19 20 21 20 18 18 17 15 14 13 12 10 8 6 5 6 7 7 9 9 9 9 11 13 15 14 11 9 9 9 8 8 8 9 10 10 9 4 1
24 24 25 25 26 28 28 29 29 26 27 32 33 31 30 29 27 25 23 23 24 25 25 25 25 24 22 20 19 19 19 19 19 18 20 19 16 14 14 14 12 11 10 11 14 16 18 19 19 19 19 18 17 14 14 13 11 9 7 5 5 6 8 9 10 10 8 7 9 11 12 12 11 12 13 11 8 8 9 9 11 11 10 7 4
26 25 26 26 27 28 28 29 29 28 31 35 34 33 32 30 28 26 24 23 22 21 22 25 27 26 25 23 22 19 19 21 21 22 23 23 19 16 15 14 13 12 10 10 12 15 17 17 17 18 18 17 16 15 13 12 10 8 8 7 6 6 9 10 11 9 6 5 7 9 9 8 10 13 14 10 8 9 9 9 11 10 9 9 7
26 26 27 27 27 27 27 29 29 29 35 37 34 34 34 31 28 27 26 25 22 20 20 22 25 27 27 26 25 21 20 22 22 22 25 25 21 17 15 15 15 13 12 11 13 15 16 16 16 17 17 17 16 15 13 10 9 7 7 8 8 7 10 11 11 10 8 7 6 7 8 9 11 13 12 11 11 10 8 9 10 9 8 8 8
27 27 28 29 29 28 27 30 31 31 35 36 35 35 34 31 30 29 27 26 23 21 19 21 23 25 27 27 25 22 19 19 18 19 24 26 22 17 15 15 16 15 12 12 13 15 15 16 16 16 17 16 16 15 13 10 8 6 7 8 9 9 10 10 10 10 10 10 9 8 9 10 12 12 12 13 13 11 9 9 8 8 8 7 9
29 30 30 30 31 29 28 30 31 31 33 35 36 35 33 31 31 29 28 26 24 22 20 21 23 24 25 26 25 22 19 16 14 14 21 25 22 18 14 13 15 15 12 11 12 15 15 16 16 16 15 13 14 15 13 11 8 7 8 9 10 10 11 12 11 11 12 12 11 10 9 10 12 12 12 12 13 14 14 10 8 8 7 7 8
30 31 32 32 32 31 29 30 30 31 33 35 35 33 32 31 30 29 28 26 24 23 22 21 24 25 24 25 25 22 20 18 14 13 17 23 23 19 15 14 15 15 13 11 10 12 14 15 16 15 12 11 12 14 14 13 11 11 11 10 11 12 13 14 13 14 14 14 13 12 10 10 11 13 13 13 13 15 16 14 11 9 6 6 7
30 31 32 33 34 32 31 31 31 31 33 35 33 31 32 32 30 29 28 26 25 24 24 22 24 26 25 26 26 23 23 21 18 16 16 20 22 20 18 17 17 16 15 13 10 10 11 12 14 14 12 11 13 14 14 14 14 13 12 13 14 14 14 14 14 15 16 15 13 12 10 9 11 13 14 15 15 15 17 16 14 11 7 6 7
30 31 31 32 33 33 31 30 31 31 32 33 32 30 31 31 30 29 28 27 26 26 25 23 25 27 26 27 27 26 24 22 22 21 19 20 22 20 19 19 19 18 17 15 12 11 11 12 13 13 13 13 13 14 14 15 15 14 14 15 15 15 15 15 15 16 16 15 14 13 12 10 12 13 14 15 15 16 17 16 12 9 7 6 7
30 30 30 30 31 32 32 29 29 30 31 32 32 31 30 30 29 29 29 28 27 27 26 24 25 28 28 28 29 28 26 23 23 24 22 22 22 19 18 19 20 19 18 16 14 13 14 14 15 15 15 15 14 13 13 14 16 17 17 17 17 16 16 16 15 14 15 15 14 14 15 13 12 12 12 13 14 14 16 15 10 7 6 5 6
29 28 28 29 30 32 32 30 29 29 31 32 32 32 31 30 29 29 29 29 28 27 27 25 25 27 29 29 29 30 29 26 25 25 25 24 24 22 20 19 20 19 19 18 16 16 16 16 16 16 16 16 15 14 13 13 15 17 17 17 18 18 18 17 16 14 14 14 14 14 16 15 13 12 10 11 13 14 15 14 10 7 6 5 6
28 27 27 27 29 32 33 31 30 30 31 32 33 33 32 31 30 30 29 29 28 28 28 27 26 26 27 28 28 29 30 30 29 28 27 27 27 26 24 22 22 22 22 21 20 19 19 17 17 16 17 17 16 16 15 14 15 16 16 16 17 18 18 17 16 15 14 13 14 14 15 16 15 13 12 11 12 12 13 13 12 10 8 7 7
27 27 28 27 28 32 34 32 30 31 32 33 33 32 32 31 31 31 30 29 28 28 29 30 29 26 25 26 26 27 29 30 30 29 28 27 26 27 27 26 26 25 24 23 22 21 20 19 18 17 17 17 17 17 16 16 15 15 15 16 16 16 17 17 16 15 14 14 14 15 15 16 16 15 14 13 12 11 12 13 13 13 12 10 9
26 27 28 28 28 31 34 33 31 31 33 35 34 32 32 30 30 31 30 29 28 27 28 29 29 27 24 24 25 26 27 28 28 26 25 25 23 22 23 23 23 22 21 20 20 20 20 21 20 19 19 18 18 18 18 17 16 16 16 16 16 16 16 16 16 16 16 15 15 15 16 16 15 15 15 14 13 11 12 14 14 14 14 12 11
25 27 27 27 28 31 34 35 33 32 33 35 34 33 32 30 30 30 30 29 28 26 26 27 28 27 25 24 24 25 26 26 25 24 24 23 22 21 20 20 19 19 19 19 18 18 19 19 20 20 19 19 18 18 18 18 17 17 18 18 17 16 15 15 16 17 17 16 16 16 17 16 15 14 14 14 13 12 12 14 14 15 16 15 13
24 25 26 26 26 29 33 34 33 31 31 33 34 33 33 31 31 30 30 30 29 27 25 25 26 27 25 24 24 24 24 23 23 22 21 22 22 21 21 20 19 19 19 18 18 18 18 18 19 19 19 19 18 17 18 18 18 18 18 18 18 16 15 15 15 16 16 15 15 15 16 16 15 15 15 13 12 13 13 14 13 15 17 17 15
25 25 26 26 26 28 32 35 35 34 33 34 35 35 35 33 32 31 30 28 27 27 27 25 25 26 25 24 23 23 23 22 22 21 21 21 21 21 21 20 19 19 19 18 18 19 19 19 19 19 19 19 19 18 18 18 18 17 17 18 17 16 16 15 14 15 15 14 14 15 16 16 16 16 16 14 14 14 15 14 13 14 17 18 16
25 26 26 26 26 28 32 36 39 39 38 37 38 38 37 35 34 32 30 27 26 27 28 27 25 25 25 24 23 23 22 22 21 21 21 20 19 20 20 20 19 19 19 19 19 19 20 20 20 20 20 20 19 19 18 17 17 17 17 18 17 16 16 15 15 15 14 14 15 15 16 16 17 17 17 16 15 15 16 15 14 14 15 16 16
25 26 27 27 27 29 32 35 38 38 38 38 38 37 36 36 35 33 31 28 27 27 29 28 26 26 26 25 24 23 22 22 22 22 21 20 20 20 19 19 19 19 20 20 21 21 21 21 22 22 21 20 20 20 19 17 17 17 16 16 16 15 15 15 15 14 14 14 15 15 15 15 16 17 18 17 17 16 17 16 15 15 14 14 17
26 27 27 27 27 28 30 32 35 36 36 36 38 37 36 36 35 33 31 29 27 27 28 28 27 27 28 27 25 24 23 23 22 22 21 21 20 20 19 19 19 20 20 21 22 23 23 23 23 23 22 21 21 20 19 18 18 16 15 16 17 17 16 16 16 15 15 14 14 15 15 15 16 17 18 19 18 18 18 18 17 16 15 14 17
25 27 27 26 25 26 27 28 30 33 34 35 37 37 36 36 35 33 31 30 29 27 27 28 28 28 28 28 26 25 24 24 22 21 20 20 21 20 19 19 19 19 20 21 22 23 23 23 23 23 23 22 23 22 21 20 19 18 17 17 17 17 17 17 16 16 14 14 14 14 14 14 15 17 19 19 19 19 19 19 19 19 18 16 15
20 23 24 23 23 24 25 25 26 29 31 32 35 36 36 35 34 33 32 30 29 28 27 28 29 29 30 29 27 26 25 24 22 20 19 20 21 20 20 19 19 20 20 21 22 22 22 23 23 23 22 22 23 24 23 22 21 20 19 17 16 16 16 15 15 14 13 12 13 14 13 13 14 16 18 19 20 19 19 19 20 20 20 19 16
13 18 20 22 23 24 23 23 24 25 26 28 32 33 34 33 32 32 31 29 28 27 26 26 29 31 31 30 28 27 26 24 22 20 19 20 20 20 19 20 20 21 21 21 22 22 22 23 23 23 21 20 21 23 24 23 21 20 18 16 15 15 14 14 14 13 13 13 13 13 12 12 13 15 16 18 19 18 19 20 21 21 22 21 19
10 14 19 21 22 22 21 20 21 22 22 23 27 30 30 30 30 30 29 27 26 25 24 24 28 29 27 27 27 26 24 22 21 20 20 20 21 20 20 20 20 21 21 21 22 22 23 23 23 21 20 19 20 21 22 21 19 18 17 16 15 14 13 13 13 13 13 12 12 12 12 12 13 14 14 15 15 16 18 20 21 21 22 22 21
8 14 18 21 22 22 20 18 19 21 20 19 21 25 27 27 29 29 28 26 24 23 22 23 26 26 25 25 25 24 23 22 21 21 21 21 21 21 21 20 20 20 21 21 21 21 22 21 21 20 19 19 20 20 20 19 18 18 18 17 15 13 12 12 13 13 13 12 12 12 13 13 13 13 13 13 13 14 16 18 20 21 21 22 22
6 11 15 19 21 21 18 18 19 20 19 18 17 19 20 22 24 26 27 25 23 22 22 23 24 24 24 23 23 22 22 22 23 23 22 21 21 21 21 20 20 22 22 21 20 20 19 18 18 18 18 19 20 20 19 18 19 19 19 17 14 13 13 13 14 14 13 12 12 12 12 12 12 11 11 12 13 13 15 16 18 19 19 20 21
3 7 11 14 17 19 19 19 19 18 18 16 14 15 15 16 19 22 24 23 22 22 22 22 21 22 22 22 21 21 21 21 21 21 21 21 22 22 21 20 21 23 23 21 19 19 18 17 18 18 18 19 20 18 17 17 19 19 17 15 13 13 14 15 15 14 12 11 11 11 11 10 11 11 11 11 13 14 15 16 16 16 16 17 18
4 6 8 10 13 16 17 17 16 15 15 13 11 12 13 14 16 19 21 21 21 22 21 19 18 19 20 20 19 19 19 19 20 20 20 21 22 21 21 20 21 22 21 20 19 19 19 19 19 19 20 20 18 17 16 17 17 16 15 14 13 14 14 15 15 13 10 10 11 10 10 10 10 11 11 12 13 14 15 15 15 15 15 15 16
9 7 7 8 11 13 12 12 12 11 11 10 9 10 12 14 16 18 20 21 21 21 19 17 16 16 17 18 16 16 17 18 19 20 19 20 20 19 19 18 19 19 19 18 18 18 18 18 18 19 19 18 17 16 16 15 15 14 13 12 13 14 14 13 13 11 10 10 10 10 10 10 11 11 11 12 13 14 14 15 15 16 16 16 16
12 10 6 4 4 5 5 5 6 6 7 8 8 10 11 13 15 18 20 21 21 19 17 16 16 15 16 16 15 15 16 18 18 18 18 18 17 16 16 15 15 15 15 15 15 15 15 15 16 16 16 16 15 15 14 14 14 13 13 12 13 13 13 12 11 11 11 10 10 10 11 11 11 11 11 11 12 13 13 14 15 16 16 16 17
12 12 12 11 11 9 4 2 3 5 6 8 10 11 12 12 14 17 19 20 21 19 18 17 16 15 15 15 15 15 15 15 16 16 16 15 13 12 12 11 11 10 11 11 11 11 12 13 14 14 14 14 13 13 12 12 12 13 13 13 13 13 13 13 12 12 12 11 11 11 12 11 11 11 11 11 12 13 13 13 14 14 15 15 15
15 18 17 15 17 16 8 2 3 6 7 7 10 13 14 13 14 16 18 20 21 20 19 18 16 15 15 15 15 15 14 14 15 14 12 11 10 10 10 9 9 9 10 11 11 11 12 12 12 12 11 11 11 10 10 11 12 12 13 13 13 14 14 14 15 15 15 14 13 13 13 12 12 12 12 12 12 13 14 14 13 13 14 15 14
20 25 24 19 21 20 11 4 4 7 9 8 8 13 16 15 14 15 17 19 21 22 21 19 18 17 17 17 17 16 15 14 13 12 11 10 10 10 9 9 9 10 11 11 10 9 9 9 9 8 7 7 8 9 10 10 11 11 12 12 13 14 15 15 16 16 17 17 17 16 15 15 14 14 14 13 13 13 12 12 12 13 13 14 14
22 27 26 22 22 19 11 5 2 7 9 9 8 10 15 17 16 16 17 19 21 22 22 21 21 20 20 20 20 18 16 15 13 12 12 12 12 11 10 11 11 11 11 10 9 8 8 9 8 7 7 8 9 9 10 11 11 11 11 12 14 15 16 17 17 16 18 19 19 18 17 16 16 16 15 14 14 13 12 11 12 13 13 13 13
24 26 25 19 18 17 8 2 2 7 10 10 11 10 12 17 18 18 18 20 22 23 24 23 23 23 23 22 21 19 17 16 14 13 13 13 13 13 13 13 13 13 12 10 10 9 9 9 9 8 9 10 11 11 11 12 12 13 14 15 17 18 19 19 18 18 18 19 19 18 18 17 17 16 15 15 15 15 15 14 15 15 15 15 15
24 26 24 18 15 15 8 2 6 8 11 11 12 14 13 15 19 19 20 22 23 24 25 25 24 24 23 22 21 19 18 17 15 14 14 15 15 14 14 14 13 13 12 11 11 11 11 11 11 11 11 12 13 13 14 14 15 16 17 18 18 18 18 18 19 19 20 21 19 18 18 17 18 18 18 18 19 19 19 19 19 20 20 20 20
24 25 24 20 14 12 9 2 8 10 12 11 12 15 16 16 18 20 22 23 24 25 25 25 24 23 22 21 20 19 18 18 17 17 16 16 16 16 15 14 13 12 12 12 13 14 15 15 15 15 15 15 16 16 16 16 17 18 19 19 18 18 17 16 16 17 20 22 21 19 19 18 18 19 19 20 21 22 22 22 22 23 23 23 23
25 25 23 23 16 9 8 5 7 13 12 10 12 15 16 16 17 21 24 25 25 25 24 23 23 22 21 21 20 20 20 19 19 18 17 17 16 16 15 14 13 13 12 13 15 16 18 18 18 17 17 17 17 17 16 17 17 17 18 18 18 17 15 13 13 14 18 21 21 20 20 20 20 21 21 22 23 23 22 21 21 21 20 20 20
24 25 23 22 15 6 6 7 9 14 14 11 12 16 17 17 18 22 26 26 24 23 23 23 22 21 20 21 21 21 21 21 19 18 17 16 15 14 13 12 12 12 12 12 14 15 16 16 15 14 14 13 14 14 14 15 16 16 17 16 14 12 10 10 11 13 15 18 19 20 20 20 20 20 21 21 20 20 20 20 20 19 19 18 17
20 23 23 18 10 4 4 7 9 11 13 13 12 15 18 19 21 24 26 25 23 23 23 23 22 21 21 21 21 21 21 20 19 17 17 16 14 13 12 12 11 11 10 11 13 13 13 13 12 11 10 10 11 12 13 14 14 14 13 11 7 6 6 9 11 12 13 15 16 17 17 17 17 18 18 18 18 19 19 19 19 19 17 16 14
18 22 23 15 8 6 1 6 8 7 8 10 13 14 16 20 24 25 26 25 23 23 23 23 22 22 22 21 21 21 21 20 19 18 16 16 15 14 13 12 11 11 10 11 13 14 13 12 12 12 11 11 10 9 8 8 9 9 8 5 3 3 4 7 9 10 11 12 13 14 14 14 15 15 15 14 14 14 14 14 14 13 12 11 11
16 19 21 16 10 10 7 2 6 8 9 12 16 16 16 21 25 26 26 25 24 23 23 23 23 23 23 23 22 22 21 20 19 18 17 16 15 15 13 13 12 11 11 13 14 15 15 14 13 13 11 9 6 4 3 4 5 5 5 3 3 3 3 4 5 7 8 9 10 10 10 9 8 7 7 6 6 7 7 7 6 5 6 7 8
15 16 19 18 14 11 7 5 8 10 12 15 18 18 19 22 25 26 26 25 24 23 23 24 24 24 24 24 24 23 22 21 20 19 17 16 15 15 14 13 12 11 12 14 15 16 16 14 13 11 9 6 4 3 3 4 5 5 4 3 3 4 3 3 3 4 4 5 6 5 4 3 2 2 2 3 5 5 5 4 4 4 4 5 6
18 15 16 17 16 13 8 3 8 11 14 17 20 22 23 24 26 28 27 25 23 23 24 25 25 25 25 25 25 25 24 22 21 19 17 15 14 14 14 13 11 11 11 13 14 15 14 12 11 9 7 4 2 3 5 6 6 5 3 2 3 3 3 3 3 3 3 3 3 4 3 2 1 0 2 3 5 4 4 4 5 6 6 6 7
19 17 14 13 15 15 10 3 4 10 15 19 23 25 25 25 26 27 27 27 25 23 23 24 25 25 25 25 26 25 25 23 20 18 16 14 13 11 10 9 9 9 9 11 12 12 11 10 9 8 5 2 0 3 4 5 6 5 3 2 2 2 2 2 3 3 3 2 3 3 3 3 2 0 1 1 2 2 3 3 5 6 6 6 7
15 17 13 10 13 16 12 7 2 2 7 13 18 21 21 23 26 27 27 27 26 23 21 20 22 23 24 24 24 24 24 22 20 17 15 13 11 10 9 8 6 5 5 6 7 8 8 8 8 7 6 4 2 3 3 3 3 3 1 2 2 1 0 1 2 3 4 4 4 4 3 3 2 2 2 1 1 1 1 3 6 7 7 6 6
12 15 15 12 12 15 16 11 7 5 5 6 10 15 18 21 26 31 31 30 27 24 20 19 19 20 21 23 23 23 22 21 19 17 15 11 10 10 8 7 7 6 5 5 5 5 6 7 7 7 5 4 2 2 3 3 4 3 1 1 1 2 2 2 2 4 6 6 6 5 4 3 3 3 4 2 1 1 3 5 7 8 8 7 6
11 13 16 15 13 14 15 14 9 6 7 7 5 8 14 18 22 27 31 32 30 26 21 19 19 19 19 20 21 23 22 21 19 18 15 13 12 11 9 7 6 6 5 5 4 4 4 4 5 6 5 4 2 1 1 3 4 4 3 2 2 3 4 4 4 5 7 8 7 6 5 4 5 5 6 4 3 3 4 5 7 8 9 10 9
11 11 13 15 16 16 15 14 12 10 10 9 7 6 9 13 17 21 25 29 30 27 22 19 18 18 18 17 18 20 21 20 20 18 15 13 11 10 9 8 7 6 5 4 3 3 3 2 3 4 4 4 3 2 2 3 4 4 4 3 3 4 5 5 5 7 8 8 7 6 6 6 6 7 6 5 3 2 2 3 5 8 9 10 11
Wind_Direction
200 198 196 196 200 199 201 205 199 195 199 201 203 203 202 203 200 195 194 193 188 186 188 186 182 181 183 182 183 182 181 183 185 188 193 190 190 194 198 207 214 218 219 215 210 205 205 211 213 212 217 225 235 245 242 237 246 260 272 281 285 291 304 318 332 347 348 340 339 346 350 348 353 5 8 9 0 351 359 5 2 359 346 312 281
198 197 197 200 202 200 201 202 200 198 197 198 201 204 205 205 202 196 193 193 191 190 191 191 187 187 190 187 183 184 186 188 188 191 200 207 213 215 212 212 215 220 225 222 215 209 208 214 219 223 229 234 240 245 246 248 255 265 275 280 278 281 296 311 327 341 348 343 334 340 348 347 350 7 8 2 356 353 2 8 5 6 6 350 184
192 194 197 201 203 201 200 202 203 197 190 193 198 202 206 206 203 199 195 196 195 192 193 195 193 192 196 196 189 190 192 191 192 199 208 217 223 222 218 222 228 232 238 234 225 217 214 217 223 229 236 243 248 252 255 257 261 267 273 266 253 272 293 308 319 323 335 342 333 336 344 340 340 355 357 351 351 356 360 357 359 5 10 10 309
191 194 195 196 199 199 199 201 199 190 187 193 198 201 203 203 202 201 199 198 199 198 196 198 197 193 196 200 197 198 198 194 196 203 211 216 219 218 217 223 234 241 251 250 236 228 224 223 226 230 238 245 250 254 256 260 263 261 252 230 235 279 292 302 309 306 314 334 333 336 339 334 335 342 343 343 347 354 354 350 352 358 1 360 340
194 192 190 192 196 196 196 196 193 187 188 193 195 198 200 201 203 204 202 202 203 204 202 201 199 196 197 200 202 202 202 203 203 200 204 210 212 213 216 223 232 239 252 258 246 237 233 229 229 231 236 243 248 252 254 257 257 245 229 222 239 277 287 294 299 295 301 320 326 333 335 331 333 334 336 341 341 343 346 346 348 349 350 351 348
201 196 192 192 194 194 192 192 191 188 191 195 195 195 198 202 206 206 206 205 206 209 209 206 203 201 201 203 204 203 201 207 209 202 201 205 208 214 219 223 230 238 251 257 247 240 237 233 232 232 236 241 246 250 251 248 244 236 229 232 241 264 280 285 284 282 288 296 304 316 318 315 319 323 326 330 332 336 343 346 345 342 346 354 353
202 199 194 191 192 193 191 192 192 189 193 196 195 194 198 203 206 208 208 206 207 209 210 208 205 203 203 205 207 205 202 204 208 206 204 204 208 217 220 222 230 238 252 259 245 235 234 235 233 233 236 240 245 248 248 246 244 241 241 246 251 261 274 276 273 272 276 285 293 297 297 296 301 310 315 319 322 325 335 344 344 342 345 359 3
199 196 192 189 190 194 192 192 192 192 194 196 194 195 199 202 204 207 207 206 207 208 208 208 207 203 200 203 206 207 206 205 205 205 206 206 209 216 221 225 230 234 247 255 243 233 233 235 235 234 235 238 241 242 245 248 241 231 235 244 252 263 274 276 273 268 269 278 282 275 279 286 289 298 308 311 311 314 325 337 340 342 343 350 3
203 200 195 188 188 193 193 190 190 193 195 195 194 197 199 200 202 205 205 206 207 207 208 210 209 203 198 197 201 208 213 214 213 207 208 211 212 216 222 224 227 231 239 242 237 233 234 236 237 236 236 242 247 245 245 249 242 233 238 246 255 264 271 274 273 271 274 280 277 266 271 284 285 288 298 308 310 312 321 329 332 338 345 345 355
204 203 199 192 189 191 189 187 189 192 193 195 196 197 197 198 201 204 205 206 207 207 209 211 207 201 196 194 199 209 215 216 215 210 211 215 213 216 221 221 225 229 234 235 233 233 234 235 237 239 243 250 257 253 247 248 246 242 245 252 257 262 265 267 272 275 278 283 279 268 269 283 287 288 297 307 309 311 318 324 327 328 338 353 355
203 202 201 197 193 193 190 187 189 191 192 194 195 195 196 198 201 204 205 207 208 209 211 211 207 202 199 197 200 208 213 211 208 206 209 214 213 218 223 221 223 227 230 235 235 236 238 237 237 241 248 253 256 254 248 246 244 242 244 249 254 259 263 268 274 275 277 279 275 264 263 272 281 290 301 306 305 306 313 323 329 323 326 355 358
203 202 202 199 196 198 197 192 190 191 192 193 195 197 197 199 202 204 205 207 210 213 215 214 209 205 203 203 203 206 210 208 205 203 205 210 214 220 221 217 221 226 231 236 236 237 240 240 240 241 247 253 255 254 251 246 242 241 244 249 254 260 265 270 274 274 276 276 270 259 257 261 269 281 297 304 301 298 304 319 329 321 322 343 347
204 205 204 203 200 198 198 196 193 194 194 195 197 199 200 201 202 204 207 209 213 217 218 217 214 211 209 209 207 207 209 209 206 206 206 209 214 219 220 218 223 229 236 241 242 243 244 243 244 245 249 255 257 257 257 251 245 246 249 252 256 261 265 268 271 273 276 276 271 260 254 255 261 272 284 294 298 294 299 316 322 310 313 324 329
204 207 207 208 205 200 199 198 196 199 200 199 201 202 203 205 206 208 210 212 217 220 220 219 219 217 215 215 214 211 212 213 212 214 214 215 217 220 223 226 230 235 240 245 248 249 249 245 243 245 250 254 256 259 261 259 255 254 255 257 259 262 263 265 267 268 269 270 271 267 259 254 258 266 275 284 294 294 296 311 316 308 303 305 317
204 207 208 209 207 202 201 201 201 203 204 204 204 204 205 208 210 212 213 214 217 219 220 220 221 221 220 220 219 215 214 216 217 219 221 222 221 221 225 229 233 237 241 244 247 249 249 246 243 244 247 250 252 255 257 256 256 256 258 261 263 265 264 264 265 266 265 264 266 270 267 261 261 267 272 279 290 295 297 304 308 308 303 299 308
207 207 207 208 207 204 203 203 203 204 206 206 207 206 207 209 211 213 215 216 217 218 219 219 220 222 222 221 220 217 216 217 219 221 223 225 226 225 225 228 232 234 237 240 242 245 247 247 247 247 248 247 247 252 255 253 253 256 260 264 266 267 265 265 266 267 267 264 263 267 269 267 267 270 273 276 282 292 302 301 298 299 300 297 302
209 209 209 208 206 206 205 205 206 207 208 208 209 211 211 211 212 214 216 217 219 220 219 219 220 221 223 223 222 219 217 218 221 223 224 226 228 229 228 231 234 235 237 240 243 245 245 245 248 249 249 249 248 252 253 249 250 255 260 264 267 268 266 265 268 270 270 268 266 265 266 266 267 269 270 271 277 287 297 298 294 292 290 288 292
212 212 212 211 208 207 206 206 208 209 210 211 212 213 214 216 216 216 217 218 219 220 219 218 219 220 222 222 222 221 220 221 222 224 227 229 229 230 232 233 236 239 241 243 245 244 242 240 242 245 247 249 252 252 249 247 250 254 257 260 263 264 265 265 270 274 274 272 270 268 267 265 262 262 263 266 274 280 283 288 291 290 283 277 281
211 213 214 214 211 208 206 206 207 207 209 213 215 214 215 217 218 219 219 219 220 221 220 219 219 221 222 221 222 223 223 223 224 225 228 231 230 231 232 234 237 240 241 242 242 241 239 237 238 242 245 248 250 249 246 247 251 255 257 258 259 260 264 269 274 276 274 271 270 268 267 264 258 255 256 260 266 269 271 274 279 283 276 267 271
212 215 216 217 214 209 207 208 209 209 210 211 212 213 214 215 217 218 219 219 221 222 221 219 218 220 221 220 222 223 223 224 225 227 230 230 229 229 232 235 237 239 240 240 240 239 238 238 239 241 242 244 246 244 244 248 253 258 260 261 261 262 263 267 271 271 270 269 269 267 265 262 258 254 253 256 259 259 261 262 266 275 269 256 258
215 218 218 217 215 212 211 212 213 214 212 209 209 212 214 215 216 218 219 220 221 222 221 220 218 218 220 220 220 221 222 223 225 228 230 228 228 229 231 235 236 237 239 239 240 240 239 240 241 242 243 244 244 244 244 248 253 258 262 266 268 267 264 263 263 265 266 268 269 268 265 262 258 256 254 253 252 252 254 253 257 269 271 260 258
217 220 219 216 214 215 216 216 215 215 213 209 208 210 214 216 217 219 221 223 224 223 222 220 217 218 220 220 220 220 221 223 224 227 229 227 227 229 232 234 235 236 237 238 240 241 241 242 243 245 246 245 244 244 244 247 251 256 264 271 271 266 264 262 262 266 271 272 270 268 264 261 259 257 254 251 249 249 251 249 249 258 265 267 267
216 218 219 215 214 217 218 219 218 217 217 213 209 210 213 216 218 220 223 227 228 227 225 222 219 219 220 220 220 219 220 222 224 225 228 228 228 230 233 234 233 233 235 238 239 241 242 242 243 244 245 244 243 241 241 245 249 255 264 270 267 263 264 264 267 272 277 278 274 270 267 265 261 256 252 250 249 248 249 247 247 251 256 260 269
209 211 214 212 213 217 217 219 219 218 220 218 212 211 214 216 219 223 226 229 230 231 230 227 225 222 220 220 220 220 220 220 221 223 226 228 229 231 232 232 232 234 236 238 239 240 241 240 240 241 244 246 245 241 240 243 248 256 263 264 261 260 263 265 270 273 275 275 273 272 271 269 264 257 252 251 251 251 250 248 247 249 253 255 260
199 204 208 211 217 220 219 221 221 218 221 219 215 215 217 219 222 225 228 229 229 232 233 232 231 227 223 222 222 222 221 218 219 222 224 226 228 230 231 232 234 236 237 237 236 237 238 239 240 242 245 248 247 242 240 241 247 255 260 259 256 256 257 262 268 272 273 273 273 272 270 267 265 261 256 254 256 256 254 252 249 250 254 255 256
193 200 208 215 219 221 222 226 225 221 220 218 216 218 220 222 225 227 228 227 227 230 233 235 237 235 231 228 225 225 223 220 222 226 226 225 226 229 230 232 234 235 235 234 233 235 237 239 242 244 246 247 245 241 238 239 246 252 255 254 250 248 251 258 263 266 269 272 274 272 268 265 265 264 260 257 258 259 257 253 249 250 254 256 257
189 198 208 215 214 215 220 227 228 224 222 221 219 220 223 226 228 228 228 227 227 230 234 239 241 241 238 230 224 225 226 225 227 229 228 226 227 230 230 230 235 237 234 232 232 234 236 238 241 242 244 244 242 238 236 238 243 249 251 249 243 241 247 253 257 260 264 270 274 272 269 267 266 264 262 261 261 261 258 253 249 250 254 256 259
188 199 211 215 211 211 217 223 225 225 224 223 220 221 226 232 233 232 229 226 226 231 236 237 236 234 229 224 222 223 225 226 227 227 228 228 231 234 232 230 236 239 236 232 230 230 231 234 238 241 242 241 238 234 232 234 241 247 249 246 242 242 246 252 256 257 259 265 269 270 269 269 267 264 262 261 260 257 254 252 250 251 255 259 261
194 209 216 219 212 209 216 224 226 228 226 220 218 221 226 232 234 230 227 225 226 231 234 231 225 221 219 221 222 222 223 225 228 229 230 231 233 235 233 232 234 234 233 231 228 226 229 233 236 236 235 234 233 232 229 231 236 240 243 244 246 247 250 256 259 258 260 264 267 268 268 268 268 264 260 258 257 253 250 249 247 248 254 260 264
289 241 221 223 214 205 212 226 230 231 229 223 224 230 233 237 234 227 224 225 227 230 232 229 223 221 222 224 224 222 224 226 230 231 229 229 231 231 230 230 229 228 228 228 227 227 230 233 234 231 229 228 228 227 226 227 230 233 239 245 249 250 252 255 255 256 261 263 263 264 264 265 267 264 260 256 255 253 250 249 249 250 252 255 260
315 276 231 226 222 209 213 228 231 232 233 233 242 247 244 244 240 231 227 227 227 228 230 232 231 226 225 225 223 223 225 226 228 229 226 226 227 228 229 227 224 224 226 226 228 230 230 232 231 228 225 225 224 221 222 225 227 233 240 244 247 249 248 248 250 253 255 257 261 264 263 262 263 263 259 255 256 257 254 252 253 255 255 256 258
327 305 283 291 277 246 238 243 245 251 256 262 272 271 261 253 244 238 235 230 228 229 231 233 233 228 225 224 222 222 223 222 223 227 229 229 226 224 225 224 222 225 227 226 229 231 228 226 225 222 222 224 225 223 222 226 231 237 243 245 247 249 248 248 253 256 256 260 266 268 265 261 260 259 255 252 256 259 259 258 257 257 258 257 257
319 314 313 329 342 344 351 9 313 296 290 295 296 286 278 270 255 246 242 236 232 233 234 231 226 222 220 219 218 219 219 217 220 227 230 227 220 213 212 214 216 219 220 220 224 225 219 214 213 212 215 221 224 224 224 230 236 241 245 246 247 250 253 255 258 261 261 263 265 266 265 263 262 260 256 252 253 256 258 258 258 259 260 259 258
315 325 327 325 332 335 337 357 316 293 285 294 303 296 283 272 261 251 246 242 239 239 238 233 225 218 216 218 219 216 213 212 213 216 217 211 203 196 192 194 199 200 200 204 211 212 208 208 210 211 212 217 220 223 228 233 238 240 242 244 248 253 258 260 263 265 264 262 262 263 262 263 264 264 263 260 257 258 258 257 256 256 258 260 261
329 334 335 329 327 326 328 354 328 292 284 277 293 303 291 272 258 250 242 239 241 241 239 233 226 219 215 215 212 207 203 202 200 198 196 190 182 178 179 186 190 187 189 194 199 199 197 201 207 210 213 218 221 224 228 231 233 237 240 245 249 253 257 259 260 262 264 263 263 260 258 260 263 262 264 265 264 263 262 259 257 255 255 257 260
349 343 338 332 325 321 329 358 311 268 267 253 248 284 293 279 260 245 236 232 235 238 235 231 225 218 212 208 203 198 195 194 191 187 183 181 180 179 181 184 179 174 177 182 185 188 191 197 203 207 210 214 217 221 227 231 235 240 246 251 255 257 258 257 256 259 263 264 263 259 255 257 261 262 261 262 264 265 264 260 256 255 255 254 254
354 351 346 334 319 316 326 11 216 229 230 228 226 237 268 275 263 247 234 228 229 231 229 228 224 217 210 204 198 195 193 190 188 184 179 180 181 180 179 179 175 173 176 184 193 201 206 211 215 217 215 215 219 226 234 241 247 253 259 264 267 266 264 262 260 258 258 260 260 257 253 252 257 263 266 267 267 266 265 262 260 258 257 254 253
348 348 348 339 317 311 311 180 173 206 219 220 219 218 232 258 260 249 236 228 226 227 227 225 221 215 210 204 198 197 194 189 186 183 179 179 179 177 178 179 180 182 186 197 211 218 224 228 229 230 227 224 228 235 241 249 256 261 267 271 273 272 269 267 263 255 249 251 253 252 251 251 256 263 269 272 274 272 270 267 266 264 263 261 263
348 346 346 343 326 304 299 249 164 185 214 225 224 220 226 246 257 250 239 230 227 227 226 221 216 213 211 206 202 201 197 191 188 188 187 186 183 183 185 188 193 201 207 216 225 229 232 236 237 237 236 235 238 242 248 254 261 266 271 275 278 277 274 270 264 250 241 242 246 247 247 250 255 260 266 271 274 276 275 274 272 271 270 269 270
353 353 348 342 330 294 281 275 191 183 195 224 242 237 230 237 251 249 237 230 228 226 222 217 212 211 213 212 209 206 201 196 194 192 192 191 189 189 193 199 207 216 222 230 236 237 236 237 239 241 242 243 245 248 253 259 267 273 277 278 278 276 271 264 256 244 235 236 241 245 246 250 255 260 266 270 273 276 276 276 275 274 272 272 272
354 356 349 341 334 294 246 253 230 200 187 202 242 252 241 232 242 245 236 227 224 221 216 212 211 212 216 217 214 208 202 199 199 196 193 193 196 199 205 211 217 225 232 234 233 233 231 231 234 239 242 244 248 253 259 265 272 277 279 279 278 272 258 239 233 233 231 233 239 246 250 254 258 262 267 270 274 276 276 277 277 277 276 275 273
350 351 348 345 341 312 225 219 227 211 189 190 219 245 247 236 232 236 233 226 221 217 212 211 212 214 217 217 213 209 205 201 200 200 198 197 202 210 218 222 226 234 239 234 228 226 225 226 233 241 248 256 263 269 271 271 273 276 279 280 273 256 232 218 221 230 234 237 242 249 254 260 265 271 276 279 281 282 282 281 279 278 276 271 267
344 346 346 347 354 355 322 195 197 189 184 203 220 235 247 242 234 231 230 227 221 216 213 213 214 214 215 214 211 209 209 207 205 205 205 206 209 215 221 226 231 237 237 232 229 227 226 231 241 250 258 266 273 278 280 278 278 283 288 281 249 219 211 213 223 235 241 244 248 254 261 268 273 278 282 284 286 285 282 278 274 272 269 262 256
337 342 345 348 349 353 5 113 153 154 172 206 220 223 233 239 239 235 230 224 219 216 215 216 216 215 212 211 210 209 210 212 211 209 210 211 213 216 220 226 235 240 234 229 228 228 229 235 242 249 255 262 270 280 290 294 298 303 301 277 237 223 218 217 226 238 244 249 254 257 261 268 276 283 285 292 300 297 288 283 281 278 271 259 252
331 334 345 349 345 345 9 81 128 155 182 202 214 218 223 228 232 232 228 220 216 215 216 218 218 217 215 211 210 209 209 212 214 213 212 213 214 218 224 230 236 237 229 224 225 226 227 230 235 242 249 257 273 295 302 300 301 302 295 254 216 216 224 225 235 247 254 259 257 247 244 252 276 308 330 349 357 355 346 344 340 324 303 283 268
336 330 337 341 339 346 7 91 146 160 178 198 213 223 226 226 229 229 224 219 218 218 219 221 220 219 219 217 214 213 211 211 212 212 212 216 219 220 224 226 227 224 219 217 219 220 220 222 227 236 245 252 280 314 312 300 292 290 285 241 216 229 237 229 235 256 270 268 245 223 206 191 180 32 19 18 18 13 1 349 336 318 306 295 281
342 335 335 329 322 331 351 19 160 167 179 198 215 226 229 231 236 233 220 214 220 223 222 224 224 222 222 222 221 220 216 213 211 208 207 208 207 205 206 209 213 216 211 207 207 207 210 216 217 215 212 206 1 354 333 306 284 272 258 225 219 261 267 243 236 241 244 231 207 200 191 180 189 237 36 34 8 341 336 347 343 334 324 311 294
342 336 337 333 313 308 316 334 350 188 201 212 218 225 229 230 235 234 220 211 216 220 218 222 225 223 222 222 223 224 221 219 217 214 210 202 186 175 175 177 178 184 186 184 185 184 185 188 183 175 172 168 124 44 18 343 305 288 254 188 154 120 155 245 227 214 206 188 175 179 186 198 214 208 173 180 290 299 8 28 13 3 357 345 327
328 329 333 337 320 297 290 296 314 322 305 267 231 228 234 230 228 227 220 213 213 215 215 218 220 219 221 224 226 227 229 229 227 223 218 205 180 163 159 156 151 148 144 142 147 153 156 158 157 158 164 163 131 81 39 3 349 355 14 141 167 178 208 226 216 204 199 190 178 169 174 189 194 173 161 166 184 135 93 49 27 23 24 20 5
304 318 326 329 323 303 285 280 284 292 304 307 282 250 249 243 234 227 219 210 208 211 213 217 218 218 221 224 227 229 232 235 233 227 222 213 194 176 163 153 147 147 144 140 140 139 135 143 155 161 164 160 143 111 25 350 346 347 341 307 254 227 220 215 206 194 187 181 170 156 145 147 153 151 147 139 127 111 87 52 31 28 32 33 28
288 300 317 319 317 312 297 281 272 269 275 288 295 286 273 262 252 241 225 209 204 206 210 216 220 223 224 227 229 230 232 236 238 238 237 233 219 201 183 168 158 154 153 153 153 148 141 154 174 185 193 197 200 216 267 308 327 332 322 299 267 237 220 207 189 177 174 172 162 145 132 127 134 147 153 149 127 78 55 45 32 26 28 31 28